This is the latest recevied weather packets stored in our database for station/object K4AMF. If no packets are shown the sender has not sent any weather packets the latest 10 day(s).
| Time | Temp. | Humidity | Pressure | Rain* | Wind** | Luminosity | Snow |
|---|---|---|---|---|---|---|---|
| 1777822326 | 19.44° C | 76% | 1020.6 hPa | 0 mm | - | 763 W/m² | - |
| 1777822024 | 20° C | 75% | 1020.8 hPa | 0 mm | - | 199 W/m² | - |
| 1777821722 | 19.44° C | 77% | 1020.6 hPa | 0 mm | - | 826 W/m² | - |
| 1777821419 | 19.44° C | 76% | 1021 hPa | 0 mm | - | 883 W/m² | - |
| 1777821115 | 19.44° C | 76% | 1020.8 hPa | 0 mm | - | 897 W/m² | - |
| 1777820812 | 18.89° C | 77% | 1020.6 hPa | 0 mm | - | 219 W/m² | - |
| 1777820508 | 19.44° C | 78% | 1020.8 hPa | 0 mm | - | 955 W/m² | - |
| 1777820205 | 18.89° C | 78% | 1020.6 hPa | 0 mm | - | 791 W/m² | - |
| 1777819903 | 18.89° C | 78% | 1021 hPa | 0 mm | - | 413 W/m² | - |
| 1777819600 | 18.89° C | 79% | 1020.9 hPa | 0 mm | - | 866 W/m² | - |
| 1777819298 | 18.89° C | 79% | 1020.7 hPa | 0 mm | - | 848 W/m² | - |
| 1777818994 | 18.89° C | 80% | 1020.9 hPa | 0 mm | - | 834 W/m² | - |
| 1777818692 | 18.89° C | 79% | 1020.9 hPa | 0 mm | - | 479 W/m² | - |
| 1777818388 | 18.89° C | 80% | 1020.6 hPa | 0 mm | - | 662 W/m² | - |
| 1777818085 | 18.89° C | 80% | 1020.7 hPa | 0 mm | - | 635 W/m² | - |
| 1777817781 | 17.78° C | 82% | 1020.5 hPa | 0 mm | - | 691 W/m² | - |
| 1777817479 | 17.78° C | 82% | 1020.5 hPa | 0 mm | - | 687 W/m² | - |
| 1777817175 | 17.78° C | 82% | 1020.6 hPa | 0 mm | - | 689 W/m² | - |
| 1777816873 | 17.78° C | 82% | 1020.5 hPa | 0 mm | - | 688 W/m² | - |
| 1777816570 | 17.22° C | 83% | 1020.6 hPa | 0 mm | - | 671 W/m² | - |
| 1777816266 | 16.67° C | 84% | 1020.4 hPa | 0 mm | - | 629 W/m² | - |
| 1777815964 | 16.67° C | 84% | 1020.4 hPa | 0 mm | - | 604 W/m² | - |
| 1777815661 | 16.67° C | 84% | 1020.3 hPa | 0 mm | - | 586 W/m² | - |
| 1777815358 | 16.67° C | 85% | 1020.3 hPa | 0 mm | - | 565 W/m² | - |
| 1777815055 | 16.11° C | 86% | 1020.2 hPa | 0 mm | - | 548 W/m² | - |
* Rain latest hour (hover to see other rain measurements)
** Current wind speed in m/s (hover to see current wind gust speed)